Regional Weather Roundup
Issued by NWS Spokane, WA

Home | Current Version | Previous Version | Text Only | Print | Product List | Glossary On
Versions: 1 2 3 4 5 6 7 8 9 10 11 12 13 14 15 16 17 18 19 20 21 22 23 24 25 26 27 28 29 30 31 32 33 34 35 36 37 38 39 40 41 42 43 44 45 46 47 48 49 50
502
NZUS01 KOTX 240205
RWROTX

Eastern Washington/Northern Idaho Roundup
National Weather Service, Spokane WA
600 PM PST TUE JAN 23 2018

Note: "fair" indicated few or no clouds below 12,000 feet with no
significant weather and/or obstructions to visibility.

...Northeast Washington and Northern Idaho Panhandle...

CITY           SKY/WX    TMP DP  RH WIND       PRES   REMARKS
Spokane Intl   LGT SNOW  34  33  96 SE8       29.98F FOG     WCI  27
Spokane Downto MIX PCPN  37  34  89 SE6       30.01F
Coeur d Alene  MIX PCPN  33  31  92 CALM      30.02F
Deer Park      LGT SNOW  33  32  96 E3        30.01F FOG
Sandpoint      RAIN      32  32 100 CALM      30.03F
Bonners Ferry  LGT SNOW  32  30  93 CALM      30.02F

...Southeast Washington and southern Idaho Panhandle...

CITY           SKY/WX    TMP DP  RH WIND       PRES   REMARKS
Walla Walla    LGT RAIN  50  37  61 S13G28    29.96F
Pullman/Moscow LGT RAIN  36  32  85 SE13      30.02F
Lewiston       CLOUDY    43  32  65 E7        30.04F
Lowell           N/A     37  35  92 CALM      30.13F
Grangeville    CLOUDY    37  28  70 W7        30.01F

...Columbia Basin...

CITY           SKY/WX    TMP DP  RH WIND       PRES   REMARKS
Ephrata        LGT RAIN  33  30  88 N6        29.96F WCI  28
Moses Lake     LGT RAIN  37  37 100 SE6       29.96F
Pasco          LGT RAIN  38  37  97 SW3       29.98F
Richland       DRIZZLE   38  37  97 W3        29.99F
Hermiston      CLOUDY    39  38  96 CALM      29.95F
Pendleton      LGT RAIN  45  37  73 S10       29.96F

...East Slopes Cascades...

CITY           SKY/WX    TMP DP  RH WIND       PRES   REMARKS
The Dalles     CLOUDY    39  36  89 NW8       29.97F
Yakima         LGT RAIN  36  34  92 CALM      29.95F FOG
Wenatchee      SNOW      30  30 100 CALM      29.96F VSB 1/4
Omak           LGT SNOW  32  32 100 CALM      29.97F FOG
Sunnyside      DRIZZLE   37  36  94 CALM      29.96F

...Southern British Columbia...

CITY           SKY/WX    TMP DP  RH WIND       PRES   REMARKS

...Western Montana...

CITY           SKY/WX    TMP DP  RH WIND       PRES   REMARKS
Kalispell      CLOUDY    30  24  78 CALM      30.02F
Missoula       CLOUDY    31  23  72 SE5       30.05F WCI  26

...Neighboring Cities...

CITY           SKY/WX    TMP DP  RH WIND       PRES   REMARKS
Seattle        LGT RAIN  44  41  89 SE8       29.77F
Portland       LGT RAIN  43  41  93 E15       29.87F
Boise          CLOUDY    39  29  67 S7        30.16F
Great Falls    MOCLDY    31  15  52 S12       30.00F WCI  22



USA.gov is the U.S. government's official web portal to all federal, state and local government web resources and services.